Weather reports worldwide

Advertisment
La Gomera/Aeropuerto, Spain (60007): temperature & dewpoint: 19.01.2020 16:00:00 - 25.01.2020 16:00:00 (WET)La Gomera/Aeropuerto, Spain (60007): wind speed: 19.01.2020 16:00:00 - 25.01.2020 16:00:00 (WET)La Gomera/Aeropuerto, Spain (60007): wind direction: 19.01.2020 16:00:00 - 25.01.2020 16:00:00 (WET)La Gomera/Aeropuerto, Spain (60007): reduced air pressure: 19.01.2020 16:00:00 - 25.01.2020 16:00:00 (WET)La Gomera/Aeropuerto, Spain (60007): visibility: 19.01.2020 16:00:00 - 25.01.2020 16:00:00 (WET)
Date & Time tt [°C] td [°C] ff [km/h] ff [kn] dd ppp [hPa] vv [km]
25.01.2020 16:00:00 20,0 7,0 9 5 SSW - 10
25.01.2020 15:00:00 20,5 8,2 13 7 SSW 1022,6 65
25.01.2020 14:00:00 20,0 9,0 13 7 S - 10
25.01.2020 13:00:00 19,0 10,0 15 8 SSW - 10
25.01.2020 12:00:00 19,7 9,6 13 7 SSW 1024,7 55
25.01.2020 11:00:00 19,0 10,0 8 4 SW - 10
25.01.2020 10:00:00 18,0 9,0 4 2 - - 10
25.01.2020 09:00:00 18,4 8,7 2 1 N 1023,5 60
25.01.2020 08:00:00 15,0 7,0 2 1 - - 10
25.01.2020 07:00:00 14,0 6,0 8 4 - - 10
25.01.2020 06:00:00 14,6 5,9 2 1 SE 1022,1 10
25.01.2020 05:00:00 15,0 5,0 5 3 - - 10
25.01.2020 04:00:00 16,0 6,0 8 4 WNW - 10
25.01.2020 03:00:00 15,0 6,0 8 4 - - 10
25.01.2020 02:00:00 16,0 8,0 5 3 - - 10
25.01.2020 01:00:00 16,0 8,0 4 2 - - 10
25.01.2020 00:00:00 16,0 6,0 5 3 - - 10
24.01.2020 23:00:00 17,0 6,0 9 5 - - 10
24.01.2020 22:00:00 17,0 9,0 5 3 NNE - 10
24.01.2020 21:00:00 17,0 10,0 5 3 WNW - 10
24.01.2020 20:00:00 17,0 10,0 8 4 ENE - 10
24.01.2020 19:00:00 17,0 10,0 0 0 N - 10
24.01.2020 18:00:00 18,6 10,2 9 5 SW 1020,2 10
24.01.2020 17:00:00 18,0 12,0 8 4 ESE - 10
24.01.2020 16:00:00 18,0 11,0 13 7 E - 10
24.01.2020 15:00:00 18,0 12,0 9 5 NW - 10
24.01.2020 14:00:00 18,0 11,0 24 13 WSW - 10
24.01.2020 13:00:00 19,0 12,0 26 14 SW - 10
24.01.2020 12:00:00 19,1 10,1 11 6 N 1021,9 55
24.01.2020 11:00:00 18,0 11,0 9 5 S - 10
24.01.2020 10:00:00 17,0 10,0 4 2 - - 10
24.01.2020 09:00:00 15,9 10,2 4 2 W 1021,5 60
24.01.2020 08:00:00 14,0 8,0 5 3 NW - 10
24.01.2020 07:00:00 14,0 7,0 5 3 WNW - 10
24.01.2020 06:00:00 14,2 7,5 5 3 NNW 1020,4 10
24.01.2020 05:00:00 14,0 9,0 5 3 WNW - 10
24.01.2020 04:00:00 14,0 9,0 5 3 WNW - 10
24.01.2020 03:00:00 15,0 9,0 5 3 WNW - 10
24.01.2020 02:00:00 15,0 9,0 2 1 - - 10
24.01.2020 01:00:00 15,0 9,0 5 3 NNW - 10
24.01.2020 00:00:00 15,0 9,0 0 0 N - 10
23.01.2020 23:00:00 15,0 9,0 4 2 WNW - 10
23.01.2020 22:00:00 16,0 9,0 4 2 - - 10
23.01.2020 21:00:00 16,0 9,0 2 1 - - 10
23.01.2020 20:00:00 16,0 9,0 2 1 - - 10
23.01.2020 19:00:00 17,0 9,0 9 5 E - 10
23.01.2020 18:00:00 18,4 9,2 11 6 SW 1018,9 65
23.01.2020 17:00:00 19,0 9,0 11 6 SW - 10
23.01.2020 16:00:00 20,0 7,0 8 4 - - 10
23.01.2020 15:00:00 19,5 7,3 15 8 SSW 1019,0 65
23.01.2020 14:00:00 19,0 10,0 13 7 S - 10
23.01.2020 13:00:00 19,0 10,0 13 7 SSW - 10
23.01.2020 12:00:00 18,4 9,7 11 6 SSW 1020,6 60
23.01.2020 11:00:00 18,0 9,0 9 5 SSW - 10
23.01.2020 10:00:00 17,0 9,0 4 2 - - 10
23.01.2020 09:00:00 16,2 8,4 5 3 WNW 1019,6 60
23.01.2020 08:00:00 14,0 8,0 8 4 WNW - 10
23.01.2020 07:00:00 14,0 6,0 5 3 NW - 10
23.01.2020 06:00:00 14,6 6,7 4 2 - 1018,6 10
23.01.2020 05:00:00 14,0 6,0 4 2 - - 10
23.01.2020 04:00:00 14,0 5,0 5 3 NW - 10
23.01.2020 03:00:00 15,0 7,0 4 2 - - 10
23.01.2020 02:00:00 15,0 7,0 0 0 N - 10
23.01.2020 01:00:00 15,0 4,0 2 1 - - 10
23.01.2020 00:00:00 15,0 5,0 5 3 NNW - 10
22.01.2020 23:00:00 15,0 7,0 0 0 N - 10
22.01.2020 22:00:00 16,0 7,0 2 1 - - 10
22.01.2020 21:00:00 16,0 8,0 4 2 - - 10
22.01.2020 20:00:00 17,0 8,0 8 4 NE - 10
22.01.2020 19:00:00 17,0 8,0 5 3 - - 10
22.01.2020 18:00:00 17,8 8,6 21 11 SW 1017,5 10
22.01.2020 17:00:00 18,0 8,0 18 10 SW - 10
22.01.2020 16:00:00 18,0 8,0 18 10 SW - 10
22.01.2020 15:00:00 19,7 8,4 11 6 SSW 1017,9 60
22.01.2020 14:00:00 19,0 8,0 9 5 SSW - 10
22.01.2020 13:00:00 18,0 7,0 8 4 - - 10
22.01.2020 12:00:00 18,3 7,7 9 5 S 1019,5 10
22.01.2020 11:00:00 18,0 7,0 5 3 SSW - 10
22.01.2020 10:00:00 17,0 5,0 5 3 E - 10
22.01.2020 09:00:00 15,7 5,9 0 0 N 1019,1 70
22.01.2020 08:00:00 13,0 2,0 5 3 - - 10
22.01.2020 07:00:00 14,0 4,0 8 4 NNW - 10
22.01.2020 06:00:00 13,1 2,6 8 4 NW 1018,3 10
22.01.2020 05:00:00 13,0 6,0 8 4 NW - 10
22.01.2020 04:00:00 14,0 6,0 9 5 NW - 10
22.01.2020 03:00:00 14,0 7,0 9 5 - - 10
22.01.2020 02:00:00 14,0 6,0 8 4 NNW - 10
22.01.2020 01:00:00 14,0 7,0 5 3 - - 10
22.01.2020 00:00:00 15,0 6,0 13 7 N - 10
21.01.2020 23:00:00 15,0 7,0 9 5 - - 10
21.01.2020 22:00:00 16,0 8,0 11 6 N - 10
21.01.2020 21:00:00 16,0 7,0 9 5 N - 10
21.01.2020 20:00:00 16,0 8,0 11 6 - - 10
21.01.2020 19:00:00 16,0 9,0 2 1 - - 10
21.01.2020 18:00:00 16,3 9,3 8 4 S 1016,0 10
21.01.2020 17:00:00 16,0 9,0 9 5 E - 10
21.01.2020 16:00:00 16,0 11,0 4 2 - - 10
21.01.2020 15:00:00 17,5 8,1 5 3 - 1015,7 10
21.01.2020 14:00:00 18,0 8,0 13 7 ESE - 10
21.01.2020 13:00:00 18,0 7,0 2 1 - - 10
21.01.2020 12:00:00 18,4 6,6 9 5 S 1017,3 50
21.01.2020 11:00:00 18,0 7,0 11 6 SW - 10
21.01.2020 10:00:00 17,0 7,0 8 4 SSW - 10
21.01.2020 09:00:00 16,0 6,4 4 2 N 1016,2 40
21.01.2020 08:00:00 15,0 6,0 4 2 - - 10
21.01.2020 07:00:00 16,0 7,0 11 6 NE - 10
21.01.2020 06:00:00 15,5 6,8 11 6 NE 1015,9 10
21.01.2020 05:00:00 16,0 8,0 13 7 - - 10
21.01.2020 04:00:00 16,0 9,0 9 5 N - 10
21.01.2020 03:00:00 16,0 8,0 9 5 - - 10
21.01.2020 02:00:00 16,0 7,0 9 5 NNW - 10
21.01.2020 01:00:00 17,0 7,0 9 5 - - 10
21.01.2020 00:00:00 16,0 8,0 11 6 - - 10
20.01.2020 23:00:00 17,0 6,0 15 8 - - 10
20.01.2020 22:00:00 17,0 8,0 16 9 - - 10
20.01.2020 21:00:00 17,0 8,0 15 8 - - 10
20.01.2020 20:00:00 17,0 7,0 16 9 - - 10
20.01.2020 19:00:00 17,0 9,0 18 10 - - 10
20.01.2020 18:00:00 17,5 9,7 9 5 N 1016,4 40
20.01.2020 17:00:00 18,0 12,0 8 4 W - 10
20.01.2020 16:00:00 18,0 12,0 11 6 SSW - 10
20.01.2020 15:00:00 18,6 11,2 13 7 SW 1016,4 10
20.01.2020 14:00:00 18,0 12,0 16 9 SW - 10
20.01.2020 13:00:00 19,0 12,0 15 8 WSW - 10
20.01.2020 12:00:00 18,1 12,1 15 8 WSW 1019,0 10
20.01.2020 11:00:00 18,0 12,0 8 4 - - 10
20.01.2020 10:00:00 18,0 13,0 9 5 W - 10
20.01.2020 09:00:00 16,6 11,5 11 6 NW 1018,8 45
20.01.2020 08:00:00 16,0 13,0 5 3 NNW - 10
20.01.2020 07:00:00 16,0 13,0 8 4 WNW - 10
20.01.2020 06:00:00 16,2 13,3 8 4 W 1018,8 10
20.01.2020 05:00:00 16,0 13,0 8 4 WSW - 10
20.01.2020 04:00:00 16,0 13,0 11 6 W - 10
20.01.2020 03:00:00 16,0 14,0 11 6 - - 10
20.01.2020 02:00:00 16,0 13,0 8 4 - - 10
20.01.2020 01:00:00 16,0 12,0 5 3 - - 10
20.01.2020 00:00:00 16,0 13,0 8 4 - - 10
19.01.2020 23:00:00 17,0 13,0 11 6 WSW - 10
19.01.2020 22:00:00 17,0 12,0 5 3 WSW - 10
19.01.2020 21:00:00 17,0 13,0 5 3 SW - 10
19.01.2020 20:00:00 18,0 13,0 5 3 SW - 10
19.01.2020 19:00:00 19,0 10,0 5 3 E - 10
19.01.2020 18:00:00 21,0 2,3 13 7 SW 1022,6 55
19.01.2020 17:00:00 22,0 1,0 21 11 SW - 10
19.01.2020 16:00:00 23,0 5,0 16 9 SW - 10

tt = temperature
td = dewpoint
ff = wind speed
dd = wind direction
ppp = reduced air pressure
vv = visibility

Next stations